Nordlys — YJTS2 — position and weather

sailwx.info

Track history (hours):
 
Tides and Currents Weather Stations Pressure Air Temp Water Temp Dewpoint Dewpoint Depression Visibility Wind Speed Wind Dir Waves Ship Positions

Nordlys

Ship's website: http://fairtransport.eu/category/nordlys/

Last reported at 2019-Oct-19 14:34 UTC. Time now 2019-Oct-23 00:26 UTC.
Position N 50°27' W 003°32'.

Length 20 m; draft 3 m.

MMSI: 577228000.

Date/timePositionNaut miles runAvg speedWind from/ knotsBaromVisibWave heightAir tempDewpointWater temp
2019-Oct-19 14:34N 50°27' W 003°32'0 0.0
2019-Oct-19 14:28N 50°27' W 003°32'0 0.0
2019-Oct-19 13:58N 50°27' W 003°32'0 0.0
2019-Oct-19 13:28N 50°27' W 003°32'0 0.0
2019-Oct-19 12:58N 50°27' W 003°32'0 0.0
2019-Oct-19 12:28N 50°27' W 003°32'0 0.0
2019-Oct-19 11:58N 50°27' W 003°32'0 0.0
2019-Oct-19 11:28N 50°27' W 003°32'0 0.0
2019-Oct-19 10:58N 50°27' W 003°32'1 1.2
2019-Oct-19 10:28N 50°27' W 003°32'1 1.1
2019-Oct-19 09:58N 50°26' W 003°32'0 0.3
2019-Oct-19 09:30N 50°26' W 003°32'1 2.8
2019-Oct-19 09:00N 50°25' W 003°31'2 3.0
2019-Oct-19 08:28N 50°27' W 003°32'0 0.7
2019-Oct-19 07:58N 50°27' W 003°32'0 0.4
2019-Oct-19 07:28N 50°27' W 003°32'1 1.0
2019-Oct-19 06:58N 50°27' W 003°32'0 0.9
2019-Oct-19 06:28N 50°26' W 003°32'0 0.7
2019-Oct-19 05:58N 50°26' W 003°32'0 0.4
2019-Oct-19 05:28N 50°26' W 003°32'0 0.7
2019-Oct-19 04:58N 50°26' W 003°32'0 0.3
2019-Oct-19 04:28N 50°26' W 003°32'1 2.1
2019-Oct-19 03:58N 50°25' W 003°31'1 1.6
2019-Oct-19 03:28N 50°25' W 003°31'0 0.4
2019-Oct-19 02:58N 50°25' W 003°30'1 1.6
2019-Oct-19 02:28N 50°25' W 003°31'1 1.2
2019-Oct-19 01:58N 50°26' W 003°32'1 1.7
2019-Oct-19 01:28N 50°27' W 003°32'0 0.8
2019-Oct-19 01:00N 50°26' W 003°32'2 3.1
2019-Oct-19 00:30N 50°25' W 003°31'0 0.7
2019-Oct-19 00:00N 50°25' W 003°31'1 1.3
2019-Oct-18 23:30N 50°26' W 003°31'1 1.2
2019-Oct-18 23:00N 50°26' W 003°31'0 0.7
2019-Oct-18 22:30N 50°26' W 003°32'0 0.6
2019-Oct-18 22:00N 50°27' W 003°32'0 0.7
2019-Oct-18 21:30N 50°27' W 003°32'0 0.6
2019-Oct-18 20:58N 50°26' W 003°32'1 1.1
2019-Oct-18 20:28N 50°26' W 003°31'0 0.9
2019-Oct-18 19:58N 50°26' W 003°31'0 1.0
2019-Oct-18 19:28N 50°25' W 003°31'1 1.2
2019-Oct-18 18:58N 50°25' W 003°30'1 1.1
2019-Oct-18 18:28N 50°24' W 003°30'1 1.5
2019-Oct-18 18:01N 50°24' W 003°29'2 3.9
2019-Oct-18 17:31N 50°22' W 003°28'3 5.1
2019-Oct-18 17:00N 50°20' W 003°27'3 6.5
2019-Oct-18 16:30N 50°17' W 003°26'3 6.8
2019-Oct-18 16:00N 50°13' W 003°27'3 6.5
2019-Oct-18 15:30N 50°10' W 003°29'3 6.5
2019-Oct-18 15:00N 50°07' W 003°30'3 5.9
2019-Oct-18 14:30N 50°04' W 003°32'3 6.0
2019-Oct-18 14:00N 50°02' W 003°34'3 6.5
2019-Oct-18 13:30N 49°59' W 003°36'3 6.9
2019-Oct-18 13:00N 49°55' W 003°38'4 7.2
2019-Oct-18 12:30N 49°52' W 003°40'3 7.0
2019-Oct-18 12:00N 49°49' W 003°43'4 7.0
2019-Oct-18 11:30N 49°46' W 003°46'5 7.0
2019-Oct-18 10:50N 49°42' W 003°50'  
2019-Oct-12 09:59N 41°09' W 008°47'4 1.1
2019-Oct-12 06:35N 41°08' W 008°42'  
Track history (hours):
 
Tides and Currents Weather Stations Pressure Air Temp Water Temp Dewpoint Dewpoint Depression Visibility Wind Speed Wind Dir Waves Ship Positions

Nordlys

Ship's website: http://fairtransport.eu/category/nordlys/

Last reported at 2019-Oct-19 14:34 UTC. Time now 2019-Oct-23 00:26 UTC.
Position N 50°27' W 003°32'.

Length 20 m; draft 3 m.

MMSI: 577228000.

Date/timePositionNaut miles runAvg speedWind from/ knotsBaromVisibWave heightAir tempDewpointWater temp
2019-Oct-19 14:34N 50°27' W 003°32'0 0.0
2019-Oct-19 14:28N 50°27' W 003°32'0 0.0
2019-Oct-19 13:58N 50°27' W 003°32'0 0.0
2019-Oct-19 13:28N 50°27' W 003°32'0 0.0
2019-Oct-19 12:58N 50°27' W 003°32'0 0.0
2019-Oct-19 12:28N 50°27' W 003°32'0 0.0
2019-Oct-19 11:58N 50°27' W 003°32'0 0.0
2019-Oct-19 11:28N 50°27' W 003°32'0 0.0
2019-Oct-19 10:58N 50°27' W 003°32'1 1.2
2019-Oct-19 10:28N 50°27' W 003°32'1 1.1
2019-Oct-19 09:58N 50°26' W 003°32'0 0.3
2019-Oct-19 09:30N 50°26' W 003°32'1 2.8
2019-Oct-19 09:00N 50°25' W 003°31'2 3.0
2019-Oct-19 08:28N 50°27' W 003°32'0 0.7
2019-Oct-19 07:58N 50°27' W 003°32'0 0.4
2019-Oct-19 07:28N 50°27' W 003°32'1 1.0
2019-Oct-19 06:58N 50°27' W 003°32'0 0.9
2019-Oct-19 06:28N 50°26' W 003°32'0 0.7
2019-Oct-19 05:58N 50°26' W 003°32'0 0.4
2019-Oct-19 05:28N 50°26' W 003°32'0 0.7
2019-Oct-19 04:58N 50°26' W 003°32'0 0.3
2019-Oct-19 04:28N 50°26' W 003°32'1 2.1
2019-Oct-19 03:58N 50°25' W 003°31'1 1.6
2019-Oct-19 03:28N 50°25' W 003°31'0 0.4
2019-Oct-19 02:58N 50°25' W 003°30'1 1.6
2019-Oct-19 02:28N 50°25' W 003°31'1 1.2
2019-Oct-19 01:58N 50°26' W 003°32'1 1.7
2019-Oct-19 01:28N 50°27' W 003°32'0 0.8
2019-Oct-19 01:00N 50°26' W 003°32'2 3.1
2019-Oct-19 00:30N 50°25' W 003°31'0 0.7
2019-Oct-19 00:00N 50°25' W 003°31'1 1.3
2019-Oct-18 23:30N 50°26' W 003°31'1 1.2
2019-Oct-18 23:00N 50°26' W 003°31'0 0.7
2019-Oct-18 22:30N 50°26' W 003°32'0 0.6
2019-Oct-18 22:00N 50°27' W 003°32'0 0.7
2019-Oct-18 21:30N 50°27' W 003°32'0 0.6
2019-Oct-18 20:58N 50°26' W 003°32'1 1.1
2019-Oct-18 20:28N 50°26' W 003°31'0 0.9
2019-Oct-18 19:58N 50°26' W 003°31'0 1.0
2019-Oct-18 19:28N 50°25' W 003°31'1 1.2
2019-Oct-18 18:58N 50°25' W 003°30'1 1.1
2019-Oct-18 18:28N 50°24' W 003°30'1 1.5
2019-Oct-18 18:01N 50°24' W 003°29'2 3.9
2019-Oct-18 17:31N 50°22' W 003°28'3 5.1
2019-Oct-18 17:00N 50°20' W 003°27'3 6.5
2019-Oct-18 16:30N 50°17' W 003°26'3 6.8
2019-Oct-18 16:00N 50°13' W 003°27'3 6.5
2019-Oct-18 15:30N 50°10' W 003°29'3 6.5
2019-Oct-18 15:00N 50°07' W 003°30'3 5.9
2019-Oct-18 14:30N 50°04' W 003°32'3 6.0
2019-Oct-18 14:00N 50°02' W 003°34'3 6.5
2019-Oct-18 13:30N 49°59' W 003°36'3 6.9
2019-Oct-18 13:00N 49°55' W 003°38'4 7.2
2019-Oct-18 12:30N 49°52' W 003°40'3 7.0
2019-Oct-18 12:00N 49°49' W 003°43'4 7.0
2019-Oct-18 11:30N 49°46' W 003°46'5 7.0
2019-Oct-18 10:50N 49°42' W 003°50'  
2019-Oct-12 09:59N 41°09' W 008°47'4 1.1
2019-Oct-12 06:35N 41°08' W 008°42'  

Dump ship's entire track history